Accueil
METAR-TAF:

METAR-TAF

Aéroports :

Aéroport de Milan Malpensa

Milan, Italie

latitude: 45-37N, longitude: 008-44E, altitude: 234 m

Observation

Le bulletin a été fait il y a 10 minutes, à 05:20 UTC
Vent 2 kt de direction variable
Température 19°C
Humidité 56%
Pression 1018 hPa
Visibilité 10 km ou plus
pas de nuages en-dessous de 1500 mètres et pas de cumulonimbus.

METAR: LIMC 240520Z VRB02KT CAVOK 19/10 Q1018 NOSIG

Heure: 07:30 (05:30 UTC)

Prévision

Le bulletin a été fait il y a 6 heures et 30 minutes, à 23:00 UTC
Prévision valable du 24 à 00 UTC au 25 à 06 UTC
Vent 5 kt de direction variable
Visibilité 10 km ou plus
Nuages épars à une hauteur de 7000 ft

TAF: LIMC 232300Z 2400/2506 VRB05KT 9999 SCT070

Observations et prévisions météorologiques de plus de 4000 aéroports (messages METAR et TAF).

Les stations disponibles sont représentées par des disques jaunes et rouges sur la carte.

Passer la souris dessus pour voir le nom de la station.

Cliquer dessus pour voir les observations et prévisions météorologiques.

Pour changer de carte: cliquez sur les boutons verts avec une croix noire pour zoomer, sur le bouton vert avec un tiret pour effectuer un zoom arrière, ou sur les flèches vertes pour les cartes adjacentes.


METAR-TAF: